Regional Weather Roundup
Issued by NWS

Home | Current Version | Previous Version | Text Only | Print | Product List | Glossary Off
Versions: 1 2 3 4 5 6 7 8 9 10 11 12 13 14 15 16 17 18 19 20 21 22 23 24 25 26 27 28 29 30 31 32 33 34 35 36 37 38 39 40 41 42 43 44 45 46 47 48 49 50

000
ASUS45 KABQ 210710
RWRNM
WEATHER ROUNDUP FOR NEW MEXICO
NATIONAL WEATHER SERVICE ALBUQUERQUE NM
100 AM MDT THU AUG 21 2014

NOTE: "FAIR" MEANS FEW OR NO CLOUDS BELOW 12,000 FEET AGL WITH NO
       SIGNIFICANT WEATHER OR OBSTRUCTIONS TO VISION.

      THIS PRODUCT IS RELEASED AS TWO VERSIONS.  ONE VERSION NEAR
      THE TOP OF THE HOUR CONTAINING PRELIMINARY DATA FROM ALBUQUERQUE
      AND OTHER STATIONS.  A FINAL VERSION WITH ADDITIONAL DATA IS
      ISSUED ABOUT 10 MINUTES AFTER THE HOUR.

NMZ501-503-504-510>518-210800-
NORTHWEST PLATEAU/NORTHCENTRAL MOUNTAINS

CITY           SKY/WX    TMP DP  RH WIND       PRES   REMARKS
FARMINGTON     CLEAR     63  40  42 W7        30.12R
LOS ALAMOS     CLEAR     66  36  32 CALM      30.23R
SANTA FE       CLEAR     61  43  51 N5        30.15R
TAOS           CLEAR     54  36  50 NE6       30.22R
ANGEL FIRE     FAIR      45  39  80 CALM      30.31R

$$
NMZ402-403-502-505>509-210800-
WESTCENTRAL MOUNTAINS/SOUTHWEST MOUNTAINS

CITY           SKY/WX    TMP DP  RH WIND       PRES   REMARKS
GALLUP         CLEAR     57  39  51 W3        30.22R
SILVER CITY    CLEAR     64  50  59 NW9       30.16S

$$
NMZ407-409-411-412-210800-
SOUTHERN DESERTS

CITY           SKY/WX    TMP DP  RH WIND       PRES   REMARKS
LORDSBURG      FAIR      68  54  60 CALM      30.08S
DEMING         CLEAR     68  50  52 W9        30.07S
LAS CRUCES     PTCLDY    73  50  43 W15       30.06S
HOLLOMAN AFB   PTCLDY    75  45  33 SE7       30.00S
ALAMOGORDO     PTCLDY    72  45  37 CALM      30.03S
T OR C         CLEAR     72  46  39 W7        30.06R

$$
NMZ519>523-210800-
CENTRAL VALLEYS/CENTRAL HIGHLANDS

CITY           SKY/WX    TMP DP  RH WIND       PRES   REMARKS
ALBUQUERQUE    CLEAR     71  46  40 S5        30.10R
DOUBLE EAGLE   MOCLDY    66  41  39 W9        30.14R
MORIARTY ARPT  FAIR      53  46  75 CALM      30.16S
CLINES CORNERS CLOUDY    61  44  53 W9        30.19S
BELEN          FAIR      66  45  46 SW9       30.09R
SOCORRO        FAIR      72  44  36 NW6       30.06S

$$
NMZ524>526-539-540-210800-
SOUTHCENTRAL MOUNTAINS

CITY           SKY/WX    TMP DP  RH WIND       PRES   REMARKS
RUIDOSO        CLEAR     59  46  63 CALM      30.22S

$$
NMZ527>531-210800-
NORTHEAST HIGHLANDS/NORTHEAST PLAINS

CITY           SKY/WX    TMP DP  RH WIND       PRES   REMARKS
LAS VEGAS      CLEAR     59  45  59 NW3       30.16S
RATON          CLEAR     58  49  72 N7        30.08S
CLAYTON        CLEAR     72  57  59 S12       30.00R

$$
NMZ532>537-210800-
EASTCENTRAL PLAINS

CITY           SKY/WX    TMP DP  RH WIND       PRES   REMARKS
TUCUMCARI      PTCLDY    79  54  41 S12       29.95S
CANNON AFB     CLEAR     73  62  69 S16       30.02S
CLOVIS AIRPORT   N/A     72  61  68 S13       30.04F

$$
NMZ028-029-538-210800-
SOUTHEAST PLAINS

CITY           SKY/WX    TMP DP  RH WIND       PRES   REMARKS
ROSWELL        PTCLDY    74  61  63 S5        29.95S
ARTESIA        CLEAR     73  59  60 SW8       29.96S
CARLSBAD       CLEAR     78  62  57 S9        29.94F
HOBBS          PTCLDY    75  61  60 S14       30.00F


$$


USA.gov is the U.S. government's official web portal to all federal, state and local government web resources and services.